Orbital Elements at Epoch 2459000.5 (2020-May-31.0) TDB
Reference: JPL 19 (heliocentric ecliptic J2000)
Element | Value | Uncertainty (1-sigma) | Units |
e | .09345419714780281 | 3.4165e-08 | |
a | 2.460382781226423 | 1.7315e-08 | au |
q | 2.230449683730629 | 8.3255e-08 | au |
i | 6.527548343321468 | 6.3847e-06 | deg |
node | 174.0828481621112 | 3.6685e-05 | deg |
peri | 117.5092343823281 | 5.5125e-05 | deg |
M | 231.8810047324798 | 4.2693e-05 | deg |
tp | 2459502.164614659259 (2021-Oct-14.66461466) | 0.00016994 | TDB |
period | 1409.621273568616 3.86 | 1.4881e-05 4.074e-08 | d yr |
n | .2553877461629245 | 2.696e-09 | deg/d |
Q | 2.690315878722216 | 1.8934e-08 | au |
|
| | Orbit Determination Parameters
Additional Information
|